TAM2425 SBIL-SBRF

Flight info

Callsign TAM2425
Flight time 1h 18m
Altitude 37000
Route DOPRU UZ73 ESMOX UZ14 GERSO UZ42 ANBEX
Aircraft A20N/M-SDE2E3FGHIRWXY/LB1

Departure

Time 2026-04-26 02:49
Airport Bahia - Jorge Amado Airport (SBIL)

Arrival

Time 2026-04-26 04:07
Airport Recife/Guararapes - Gilberto Freyre International Airport (SBRF)
Time Latitude Longitude Altitude Speed Heading
2026-04-26 02:34 -14.81452 -39.03180 19 ft 0 kts
2026-04-26 02:40 -14.81456 -39.03180 19 ft 2 kts
2026-04-26 02:41 -14.81473 -39.03182 18 ft 2 kts 22°
2026-04-26 02:41 -14.81481 -39.03195 21 ft 2 kts 85°
2026-04-26 02:41 -14.81482 -39.03200 20 ft 0 kts 88°
2026-04-26 02:43 -14.81482 -39.03199 20 ft 1 kts 88°
2026-04-26 02:44 -14.81481 -39.03185 19 ft 3 kts 88°
2026-04-26 02:44 -14.81480 -39.03148 18 ft 7 kts 88°
2026-04-26 02:44 -14.81487 -39.03101 16 ft 5 kts 132°
2026-04-26 02:44 -14.81518 -39.03088 16 ft 5 kts 170°
2026-04-26 02:45 -14.81553 -39.03082 16 ft 5 kts 170°
2026-04-26 02:45 -14.81576 -39.03064 16 ft 4 kts 120°
2026-04-26 02:45 -14.81582 -39.03040 16 ft 4 kts 97°
2026-04-26 02:45 -14.81583 -39.03000 16 ft 8 kts 88°
2026-04-26 02:46 -14.81580 -39.02929 17 ft 12 kts 88°
2026-04-26 02:46 -14.81578 -39.02830 18 ft 15 kts 89°
2026-04-26 02:46 -14.81575 -39.02715 19 ft 15 kts 88°
2026-04-26 02:46 -14.81607 -39.02628 21 ft 12 kts 101°
2026-04-26 02:47 -14.81572 -39.02598 22 ft 2 kts 301°
2026-04-26 02:47 -14.81573 -39.02604 22 ft 0 kts 268°
2026-04-26 02:47 -14.81573 -39.02612 21 ft 0 kts 268°
2026-04-26 02:48 -14.81573 -39.02632 22 ft 18 kts 268°
2026-04-26 02:48 -14.81586 -39.03066 18 ft 102 kts 268°
2026-04-26 02:48 -14.81615 -39.04070 166 ft 165 kts 269°
2026-04-26 02:49 -14.81644 -39.05352 742 ft 192 kts 269°
2026-04-26 02:49 -14.81581 -39.06803 1397 ft 211 kts 279°
2026-04-26 02:49 -14.80827 -39.08092 2092 ft 216 kts 326°
2026-04-26 02:49 -14.79409 -39.08396 2763 ft 212 kts 16°
2026-04-26 02:50 -14.78271 -39.07491 3291 ft 215 kts 65°
2026-04-26 02:50 -14.78174 -39.05953 3674 ft 230 kts 107°
2026-04-26 02:50 -14.78726 -39.04300 4044 ft 255 kts 107°
2026-04-26 02:50 -14.79073 -39.02426 4490 ft 277 kts 94°
2026-04-26 02:51 -14.78809 -39.00401 4966 ft 296 kts 70°
2026-04-26 02:51 -14.77700 -38.98631 5806 ft 297 kts 53°
2026-04-26 02:51 -14.76418 -38.97005 6937 ft 287 kts 52°
2026-04-26 02:51 -14.75182 -38.95402 7924 ft 285 kts 54°
2026-04-26 02:52 -14.73988 -38.93759 8763 ft 288 kts 55°
2026-04-26 02:52 -14.72809 -38.92036 9563 ft 292 kts 57°
2026-04-26 02:52 -14.71675 -38.90303 10264 ft 299 kts 57°
2026-04-26 02:52 -14.70494 -38.88451 10625 ft 319 kts 58°
2026-04-26 02:53 -14.69248 -38.86470 10929 ft 338 kts 57°
2026-04-26 02:53 -14.67946 -38.84396 11397 ft 349 kts 57°
2026-04-26 02:53 -14.66610 -38.82273 11975 ft 355 kts 58°
2026-04-26 02:53 -14.65254 -38.80125 12637 ft 359 kts 57°
2026-04-26 02:54 -14.63881 -38.77956 13308 ft 363 kts 57°
2026-04-26 02:54 -14.62409 -38.75828 13954 ft 367 kts 47°
2026-04-26 02:54 -14.60357 -38.74256 14550 ft 370 kts 30°
2026-04-26 02:54 -14.58007 -38.73127 15135 ft 375 kts 22°
2026-04-26 02:55 -14.55527 -38.72253 15718 ft 379 kts 18°
2026-04-26 02:55 -14.52986 -38.71495 16294 ft 382 kts 17°
2026-04-26 02:55 -14.50408 -38.70765 16851 ft 386 kts 16°
2026-04-26 02:55 -14.47814 -38.70018 17387 ft 389 kts 17°
2026-04-26 02:56 -14.45202 -38.69237 17913 ft 392 kts 18°
2026-04-26 02:56 -14.42582 -38.68425 18396 ft 395 kts 18°
2026-04-26 02:56 -14.39947 -38.67588 18798 ft 398 kts 18°
2026-04-26 02:56 -14.37290 -38.66733 19208 ft 401 kts 19°
2026-04-26 02:57 -14.34623 -38.65868 19614 ft 403 kts 19°
2026-04-26 02:57 -14.31939 -38.64997 20009 ft 405 kts 19°
2026-04-26 02:57 -14.29244 -38.64123 20392 ft 408 kts 19°
2026-04-26 02:57 -14.26527 -38.63243 20792 ft 410 kts 19°
2026-04-26 02:58 -14.23793 -38.62359 21199 ft 413 kts 19°
2026-04-26 02:58 -14.21973 -38.61771 21476 ft 415 kts 18°
2026-04-26 02:58 -14.19212 -38.60880 21898 ft 417 kts 19°
2026-04-26 02:58 -14.16432 -38.59983 22314 ft 420 kts 19°
2026-04-26 02:59 -14.13634 -38.59081 22742 ft 423 kts 19°
2026-04-26 02:59 -14.10817 -38.58173 23158 ft 426 kts 19°
2026-04-26 02:59 -14.07983 -38.57260 23573 ft 428 kts 18°
2026-04-26 02:59 -14.05132 -38.56341 23929 ft 431 kts 19°
2026-04-26 03:00 -14.02261 -38.55416 24275 ft 434 kts 19°
2026-04-26 03:00 -13.99373 -38.54486 24657 ft 436 kts 18°
2026-04-26 03:00 -13.96473 -38.53552 25042 ft 438 kts 19°
2026-04-26 03:00 -13.93560 -38.52615 25436 ft 440 kts 19°
2026-04-26 03:01 -13.90632 -38.51673 25818 ft 442 kts 19°
2026-04-26 03:01 -13.87677 -38.50770 26203 ft 444 kts 17°
2026-04-26 03:01 -13.84686 -38.49930 26584 ft 447 kts 16°
2026-04-26 03:01 -13.81672 -38.49122 26952 ft 449 kts 15°
2026-04-26 03:02 -13.78641 -38.48322 27319 ft 451 kts 16°
2026-04-26 03:02 -13.75592 -38.47520 27680 ft 453 kts 15°
2026-04-26 03:02 -13.72533 -38.46710 28031 ft 455 kts 16°
2026-04-26 03:02 -13.69460 -38.45890 28374 ft 457 kts 16°
2026-04-26 03:03 -13.66373 -38.45062 28711 ft 460 kts 16°
2026-04-26 03:03 -13.63274 -38.44228 29042 ft 462 kts 16°
2026-04-26 03:03 -13.60157 -38.43388 29373 ft 464 kts 16°
2026-04-26 03:03 -13.57027 -38.42545 29698 ft 466 kts 16°
2026-04-26 03:04 -13.53884 -38.41697 29996 ft 468 kts 16°
2026-04-26 03:04 -13.50726 -38.40847 30323 ft 469 kts 16°
2026-04-26 03:04 -13.47613 -38.40009 30713 ft 467 kts 16°
2026-04-26 03:04 -13.44476 -38.39166 31124 ft 465 kts 16°
2026-04-26 03:05 -13.41348 -38.38325 31526 ft 464 kts 16°
2026-04-26 03:05 -13.38233 -38.37487 31924 ft 462 kts 16°
2026-04-26 03:05 -13.35126 -38.36652 32301 ft 461 kts 15°
2026-04-26 03:05 -13.32029 -38.35820 32712 ft 459 kts 16°
2026-04-26 03:06 -13.28945 -38.34991 33087 ft 458 kts 16°
2026-04-26 03:06 -13.25874 -38.34166 33488 ft 455 kts 15°
2026-04-26 03:06 -13.22817 -38.33345 33884 ft 454 kts 15°
2026-04-26 03:06 -13.19763 -38.32525 34199 ft 453 kts 15°
2026-04-26 03:07 -13.16720 -38.31709 34545 ft 451 kts 15°
2026-04-26 03:07 -13.13687 -38.30895 34811 ft 451 kts 15°
2026-04-26 03:07 -13.10693 -38.29958 35134 ft 448 kts 21°
2026-04-26 03:07 -13.07874 -38.28602 35386 ft 448 kts 30°
2026-04-26 03:08 -13.05238 -38.26901 35664 ft 447 kts 33°
2026-04-26 03:08 -13.02677 -38.25107 35935 ft 446 kts 35°
2026-04-26 03:08 -13.00149 -38.23257 36183 ft 445 kts 36°
2026-04-26 03:08 -12.97649 -38.21392 36430 ft 445 kts 36°
2026-04-26 03:09 -12.95145 -38.19515 36616 ft 446 kts 36°
2026-04-26 03:09 -12.92636 -38.17640 36831 ft 446 kts 36°
2026-04-26 03:09 -12.90121 -38.15769 36991 ft 447 kts 35°
2026-04-26 03:09 -12.87601 -38.13904 37018 ft 446 kts 35°
2026-04-26 03:10 -12.82569 -38.10194 37021 ft 445 kts 35°
2026-04-26 03:10 -12.77540 -38.06495 37019 ft 445 kts 35°
2026-04-26 03:11 -12.72510 -38.02797 37016 ft 445 kts 35°
2026-04-26 03:11 -12.67480 -37.99100 37010 ft 445 kts 35°
2026-04-26 03:12 -12.62456 -37.95408 37013 ft 444 kts 35°
2026-04-26 03:12 -12.57422 -37.91711 37011 ft 446 kts 35°
2026-04-26 03:13 -12.52384 -37.88012 37012 ft 446 kts 35°
2026-04-26 03:13 -12.47341 -37.84312 37007 ft 446 kts 35°
2026-04-26 03:14 -12.42304 -37.80619 37007 ft 445 kts 35°
2026-04-26 03:14 -12.37298 -37.76949 37012 ft 445 kts 35°
2026-04-26 03:15 -12.32230 -37.73236 37014 ft 445 kts 35°
2026-04-26 03:15 -12.27227 -37.69572 37007 ft 445 kts 35°
2026-04-26 03:16 -12.22157 -37.65861 37009 ft 445 kts 35°
2026-04-26 03:16 -12.17157 -37.62203 37008 ft 445 kts 35°
2026-04-26 03:17 -12.12125 -37.58524 37008 ft 445 kts 35°
2026-04-26 03:17 -12.07089 -37.54843 37007 ft 445 kts 35°
2026-04-26 03:18 -12.02052 -37.51163 37004 ft 445 kts 35°
2026-04-26 03:18 -11.97016 -37.47485 37008 ft 445 kts 34°
2026-04-26 03:19 -11.91985 -37.43815 37006 ft 444 kts 35°
2026-04-26 03:19 -11.86963 -37.40170 37004 ft 443 kts 35°
2026-04-26 03:20 -11.81942 -37.36535 37008 ft 443 kts 34°
2026-04-26 03:20 -11.76923 -37.32903 37004 ft 443 kts 35°
2026-04-26 03:21 -11.71900 -37.29269 37000 ft 443 kts 35°
2026-04-26 03:21 -11.66876 -37.25635 37004 ft 443 kts 35°
2026-04-26 03:22 -11.61844 -37.21996 37003 ft 444 kts 35°
2026-04-26 03:22 -11.56822 -37.18365 37002 ft 441 kts 35°
2026-04-26 03:23 -11.51812 -37.14746 37002 ft 441 kts 35°
2026-04-26 03:23 -11.46806 -37.11131 36999 ft 441 kts 35°
2026-04-26 03:24 -11.41796 -37.07515 36991 ft 441 kts 35°
2026-04-26 03:24 -11.36781 -37.03896 36987 ft 442 kts 35°
2026-04-26 03:25 -11.31763 -37.00277 36987 ft 442 kts 35°
2026-04-26 03:25 -11.26744 -36.96659 36987 ft 441 kts 35°
2026-04-26 03:26 -11.21739 -36.93052 36998 ft 440 kts 35°
2026-04-26 03:26 -11.16737 -36.89450 36999 ft 440 kts 35°
2026-04-26 03:27 -11.11728 -36.85844 36999 ft 441 kts 35°
2026-04-26 03:27 -11.06740 -36.82254 37001 ft 442 kts 35°
2026-04-26 03:28 -11.01723 -36.78645 36989 ft 442 kts 35°
2026-04-26 03:28 -10.96705 -36.75037 36996 ft 442 kts 35°
2026-04-26 03:29 -10.91683 -36.71427 36990 ft 442 kts 35°
2026-04-26 03:29 -10.86663 -36.67820 36989 ft 442 kts 34°
2026-04-26 03:30 -10.81462 -36.64511 36993 ft 441 kts 27°
2026-04-26 03:30 -10.75983 -36.61687 36994 ft 441 kts 26°
2026-04-26 03:31 -10.70479 -36.58905 36990 ft 442 kts 26°
2026-04-26 03:31 -10.64977 -36.56133 36995 ft 442 kts 26°
2026-04-26 03:32 -10.59469 -36.53360 36987 ft 442 kts 26°
2026-04-26 03:32 -10.53943 -36.50579 36992 ft 443 kts 26°
2026-04-26 03:33 -10.48416 -36.47800 36988 ft 443 kts 26°
2026-04-26 03:33 -10.42885 -36.45020 36989 ft 443 kts 26°
2026-04-26 03:34 -10.37356 -36.42241 36993 ft 443 kts 26°
2026-04-26 03:34 -10.31824 -36.39463 36989 ft 443 kts 26°
2026-04-26 03:35 -10.26301 -36.36690 36988 ft 443 kts 26°
2026-04-26 03:35 -10.20783 -36.33920 36995 ft 443 kts 26°
2026-04-26 03:36 -10.15262 -36.31150 36994 ft 443 kts 26°
2026-04-26 03:36 -10.09739 -36.28380 36994 ft 443 kts 26°
2026-04-26 03:37 -10.04220 -36.25614 36992 ft 442 kts 26°
2026-04-26 03:37 -9.98706 -36.22851 36991 ft 442 kts 26°
2026-04-26 03:38 -9.93193 -36.20089 36993 ft 442 kts 26°
2026-04-26 03:38 -9.87677 -36.17327 36994 ft 442 kts 26°
2026-04-26 03:39 -9.82157 -36.14564 36987 ft 442 kts 26°
2026-04-26 03:39 -9.76641 -36.11804 37000 ft 442 kts 26°
2026-04-26 03:40 -9.71144 -36.09054 36995 ft 439 kts 26°
2026-04-26 03:40 -9.65705 -36.06335 36996 ft 439 kts 26°
2026-04-26 03:41 -9.60230 -36.03599 36993 ft 439 kts 26°
2026-04-26 03:41 -9.54754 -36.00862 36993 ft 439 kts 26°
2026-04-26 03:42 -9.49269 -35.98123 36995 ft 440 kts 26°
2026-04-26 03:42 -9.43766 -35.95376 36994 ft 441 kts 26°
2026-04-26 03:43 -9.38262 -35.92629 36996 ft 441 kts 26°
2026-04-26 03:43 -9.32752 -35.89880 36969 ft 442 kts 26°
2026-04-26 03:44 -9.29998 -35.88506 36724 ft 441 kts 26°
2026-04-26 03:44 -9.27244 -35.87132 36470 ft 442 kts 26°
2026-04-26 03:44 -9.24499 -35.85764 36241 ft 436 kts 26°
2026-04-26 03:44 -9.22695 -35.84865 35832 ft 438 kts 26°
2026-04-26 03:45 -9.19945 -35.83494 35089 ft 444 kts 26°
2026-04-26 03:45 -9.17154 -35.82103 34359 ft 449 kts 26°
2026-04-26 03:45 -9.14331 -35.80697 33554 ft 456 kts 26°
2026-04-26 03:45 -9.11472 -35.79272 32730 ft 460 kts 27°
2026-04-26 03:46 -9.08588 -35.77836 31916 ft 464 kts 27°
2026-04-26 03:46 -9.05670 -35.76383 31065 ft 469 kts 28°
2026-04-26 03:46 -9.02763 -35.74851 30191 ft 473 kts 34°
2026-04-26 03:47 -8.97749 -35.70605 28717 ft 468 kts 45°
2026-04-26 03:47 -8.95392 -35.68348 28084 ft 465 kts 45°
2026-04-26 03:47 -8.93054 -35.66104 27438 ft 462 kts 45°
2026-04-26 03:47 -8.90724 -35.63872 26792 ft 460 kts 45°
2026-04-26 03:48 -8.88406 -35.61657 26150 ft 458 kts 45°
2026-04-26 03:48 -8.86111 -35.59467 25607 ft 452 kts 45°
2026-04-26 03:48 -8.83830 -35.57291 25063 ft 448 kts 45°
2026-04-26 03:48 -8.81574 -35.55140 24517 ft 444 kts 45°
2026-04-26 03:49 -8.79338 -35.53010 23898 ft 438 kts 45°
2026-04-26 03:49 -8.77138 -35.50914 22999 ft 432 kts 45°
2026-04-26 03:49 -8.74967 -35.48847 22207 ft 424 kts 45°
2026-04-26 03:49 -8.72853 -35.46834 21567 ft 412 kts 45°
2026-04-26 03:50 -8.70798 -35.44879 20959 ft 400 kts 45°
2026-04-26 03:50 -8.68799 -35.42977 20362 ft 390 kts 45°
2026-04-26 03:50 -8.66844 -35.41119 19764 ft 382 kts 44°
2026-04-26 03:50 -8.64930 -35.39301 19191 ft 374 kts 44°
2026-04-26 03:51 -8.63047 -35.37514 18628 ft 368 kts 44°
2026-04-26 03:51 -8.61187 -35.35747 18045 ft 368 kts 44°
2026-04-26 03:51 -8.59341 -35.33995 17437 ft 369 kts 44°
2026-04-26 03:51 -8.57445 -35.32195 16862 ft 369 kts 44°
2026-04-26 03:52 -8.55573 -35.30420 16308 ft 368 kts 44°
2026-04-26 03:52 -8.53707 -35.28651 15749 ft 367 kts 44°
2026-04-26 03:52 -8.51850 -35.26889 15191 ft 366 kts 44°
2026-04-26 03:52 -8.50021 -35.25156 14617 ft 365 kts 44°
2026-04-26 03:53 -8.48173 -35.23403 14044 ft 364 kts 44°
2026-04-26 03:53 -8.46326 -35.21653 13456 ft 363 kts 44°
2026-04-26 03:53 -8.44491 -35.19914 12879 ft 361 kts 44°
2026-04-26 03:53 -8.42666 -35.18185 12327 ft 358 kts 44°
2026-04-26 03:54 -8.40853 -35.16471 11764 ft 356 kts 44°
2026-04-26 03:54 -8.39051 -35.14767 11199 ft 354 kts 44°
2026-04-26 03:54 -8.37259 -35.13072 10653 ft 352 kts 44°
2026-04-26 03:54 -8.35476 -35.11388 10189 ft 348 kts 44°
2026-04-26 03:55 -8.33749 -35.09757 10086 ft 332 kts 44°
2026-04-26 03:55 -8.32126 -35.08224 9987 ft 317 kts 44°
2026-04-26 03:55 -8.30549 -35.06734 9827 ft 305 kts 44°
2026-04-26 03:55 -8.29003 -35.05297 9420 ft 302 kts 41°
2026-04-26 03:56 -8.27206 -35.04201 8915 ft 304 kts 21°
2026-04-26 03:56 -8.25184 -35.03597 8476 ft 303 kts 14°
2026-04-26 03:56 -8.23116 -35.03108 7966 ft 300 kts 13°
2026-04-26 03:56 -8.21099 -35.02649 7517 ft 294 kts 14°
2026-04-26 03:57 -8.19157 -35.02204 7230 ft 284 kts 13°
2026-04-26 03:57 -8.17234 -35.01962 7064 ft 275 kts 358°
2026-04-26 03:57 -8.15362 -35.02293 6890 ft 266 kts 345°
2026-04-26 03:57 -8.13625 -35.02811 6644 ft 262 kts 342°
2026-04-26 03:58 -8.11891 -35.03365 6345 ft 261 kts 342°
2026-04-26 03:58 -8.10165 -35.03917 6018 ft 260 kts 342°
2026-04-26 03:58 -8.08450 -35.04462 5782 ft 255 kts 342°
2026-04-26 03:58 -8.06790 -35.04986 5672 ft 244 kts 342°
2026-04-26 03:59 -8.05208 -35.05484 5489 ft 232 kts 343°
2026-04-26 03:59 -8.03696 -35.05959 5256 ft 224 kts 343°
2026-04-26 03:59 -8.02221 -35.06408 4945 ft 220 kts 346°
2026-04-26 03:59 -8.00709 -35.06577 4575 ft 217 kts
2026-04-26 04:00 -7.99285 -35.06185 4241 ft 209 kts 31°
2026-04-26 04:00 -7.98195 -35.05324 4075 ft 191 kts 54°
2026-04-26 04:00 -7.97527 -35.04227 3845 ft 179 kts 72°
2026-04-26 04:00 -7.97101 -35.03065 3586 ft 175 kts 77°
2026-04-26 04:01 -7.96731 -35.01909 3337 ft 172 kts 78°
2026-04-26 04:01 -7.96486 -35.00743 3048 ft 168 kts 90°
2026-04-26 04:01 -7.96548 -34.99578 2720 ft 166 kts 107°
2026-04-26 04:01 -7.96949 -34.98504 2372 ft 163 kts 124°
2026-04-26 04:02 -7.97643 -34.97620 2007 ft 160 kts 141°
2026-04-26 04:02 -7.98550 -34.96999 1740 ft 155 kts 158°
2026-04-26 04:02 -7.99504 -34.96628 1681 ft 139 kts 163°
2026-04-26 04:02 -8.00402 -34.96361 1669 ft 133 kts 165°
2026-04-26 04:03 -8.01282 -34.96066 1676 ft 133 kts 163°
2026-04-26 04:03 -8.02159 -34.95773 1679 ft 133 kts 164°
2026-04-26 04:03 -8.03024 -34.95494 1675 ft 132 kts 165°
2026-04-26 04:03 -8.03900 -34.95215 1558 ft 132 kts 164°
2026-04-26 04:04 -8.04779 -34.94928 1372 ft 133 kts 163°
2026-04-26 04:04 -8.05674 -34.94629 1187 ft 135 kts 163°
2026-04-26 04:04 -8.06559 -34.94336 1012 ft 136 kts 163°
2026-04-26 04:04 -8.07473 -34.94032 818 ft 137 kts 163°
2026-04-26 04:05 -8.08377 -34.93728 622 ft 140 kts 163°
2026-04-26 04:05 -8.09305 -34.93412 455 ft 141 kts 163°
2026-04-26 04:05 -8.10233 -34.93111 280 ft 141 kts 163°
2026-04-26 04:05 -8.11169 -34.92802 127 ft 141 kts 165°
2026-04-26 04:06 -8.12080 -34.92505 35 ft 124 kts 161°
2026-04-26 04:06 -8.12635 -34.92316 41 ft 52 kts 162°
2026-04-26 04:06 -8.06903 -34.94222 953 ft 136 kts 163°
2026-04-26 04:06 -8.11561 -34.92673 56 ft 141 kts 163°
2026-04-26 04:07 -8.12377 -34.92404 37 ft 90 kts 162°
2026-04-26 04:07 -8.11545 -34.92678 54 ft 141 kts 163°
2026-04-26 04:07 -8.12705 -34.92293 42 ft 44 kts 162°
2026-04-26 04:07 -8.12959 -34.92211 41 ft 27 kts 161°
2026-04-26 04:08 -8.13101 -34.92164 41 ft 21 kts 162°
2026-04-26 04:08 -8.13227 -34.92105 40 ft 20 kts 133°
2026-04-26 04:08 -8.13289 -34.92016 40 ft 12 kts 119°
2026-04-26 04:08 -8.13331 -34.91957 41 ft 8 kts 133°
2026-04-26 04:09 -8.13363 -34.91916 41 ft 6 kts 114°
2026-04-26 04:09 -8.13356 -34.91878 42 ft 5 kts 73°
2026-04-26 04:09 -8.13347 -34.91851 40 ft 4 kts 73°
2026-04-26 04:09 -8.13346 -34.91847 39 ft 0 kts 73°